When you browse on this site, cookies collect data to enhance your experience and personalize the content and advertising you see.
Visit our Privacy Policy to learn more. By continuing to use the site, you agree to this use of cookies and data.
  • In United Kingdom
  • List of Countries
  • For 7 days
  • Water Temperature
  • Weather Map
  • Weather Widgets
  • user-avatar
    Login

    Hourly Weather Hartford

    Today, 12 November, Tuesday

    Time Temperature Precipitation Wind Pressure Humidity
    00:00 +3°C° 0 mm 6 mps 744 mmHg 79%
    01:00 +3°C° 0.1 mm 6 mps 744 mmHg 79%
    02:00 +3°C° 0.1 mm 6 mps 743 mmHg 78%
    03:00 +3°C° 0.1 mm 6 mps 743 mmHg 77%
    04:00 +3°C° 0 mm 6 mps 743 mmHg 77%
    05:00 +3°C° 0 mm 7 mps 742 mmHg 76%
    06:00 +3°C° 0 mm 7 mps 741 mmHg 79%
    07:00 +4°C° 1.1 mm 8 mps 741 mmHg 82%
    08:00 +4°C° 1.1 mm 8 mps 741 mmHg 84%
    09:00 +4°C° 1.1 mm 8 mps 741 mmHg 87%
    10:00 +5°C° 0.2 mm 8 mps 741 mmHg 83%
    11:00 +6°C° 0.2 mm 7 mps 741 mmHg 80%
    12:00 +8°C° 0.2 mm 7 mps 741 mmHg 76%
    13:00 +8°C° 0 mm 7 mps 741 mmHg 76%
    14:00 +8°C° 0 mm 6 mps 742 mmHg 77%
    15:00 +8°C° 0 mm 6 mps 742 mmHg 77%
    16:00 +7°C° 0 mm 5 mps 743 mmHg 78%
    17:00 +7°C° 0 mm 5 mps 744 mmHg 79%
    18:00 +6°C° 0 mm 4 mps 744 mmHg 80%
    19:00 +6°C° 0.1 mm 4 mps 745 mmHg 82%
    20:00 +5°C° 0.1 mm 4 mps 745 mmHg 83%
    21:00 +5°C° 0.1 mm 3 mps 746 mmHg 84%
    22:00 +5°C° 0.1 mm 3 mps 746 mmHg 85%
    23:00 +5°C° 0.1 mm 2 mps 746 mmHg 86%

    Tomorrow, 13 November, Wednesday

    Time Temperature Precipitation Wind Pressure Humidity
    00:00 +5°C° 0.1 mm 2 mps 747 mmHg 88%
    01:00 +5°C° 0 mm 2 mps 746 mmHg 88%
    02:00 +4°C° 0 mm 2 mps 746 mmHg 89%
    03:00 +4°C° 0 mm 2 mps 746 mmHg 90%
    04:00 +4°C° 0.1 mm 2 mps 746 mmHg 90%
    05:00 +4°C° 0.1 mm 2 mps 746 mmHg 91%
    06:00 +3°C° 0.1 mm 3 mps 746 mmHg 92%
    07:00 +3°C° 0.1 mm 3 mps 746 mmHg 90%
    08:00 +4°C° 0.1 mm 2 mps 745 mmHg 89%
    09:00 +5°C° 0.1 mm 2 mps 745 mmHg 88%
    10:00 +5°C° 0 mm 2 mps 744 mmHg 84%
    11:00 +6°C° 0 mm 2 mps 744 mmHg 81%
    12:00 +7°C° 0 mm 3 mps 743 mmHg 77%
    13:00 +5°C° 0 mm 3 mps 742 mmHg 78%
    14:00 +5°C° 0 mm 3 mps 741 mmHg 79%
    15:00 +5°C° 0 mm 3 mps 740 mmHg 80%
    16:00 +4°C° 0 mm 3 mps 740 mmHg 82%
    17:00 +4°C° 0 mm 3 mps 740 mmHg 84%
    18:00 +3°C° 0 mm 3 mps 739 mmHg 86%
    19:00 +3°C° 0 mm 4 mps 739 mmHg 86%
    20:00 +3°C° 0 mm 4 mps 739 mmHg 86%
    21:00 +3°C° 0 mm 4 mps 739 mmHg 87%
    22:00 +2°C° 0 mm 5 mps 740 mmHg 86%
    23:00 +2°C° 0 mm 5 mps 740 mmHg 85%

    Day after tomorrow, 14 November, Thursday

    Time Temperature Precipitation Wind Pressure Humidity
    00:00 +2°C° 0 mm 5 mps 741 mmHg 84%
    01:00 +2°C° 0 mm 5 mps 741 mmHg 84%
    02:00 +2°C° 0 mm 5 mps 741 mmHg 85%
    03:00 +2°C° 0 mm 5 mps 742 mmHg 85%
    04:00 +2°C° 0 mm 5 mps 742 mmHg 84%
    05:00 +2°C° 0 mm 6 mps 743 mmHg 83%
    06:00 +2°C° 0 mm 6 mps 743 mmHg 81%
    07:00 +2°C° 0 mm 6 mps 744 mmHg 80%
    08:00 +2°C° 0 mm 6 mps 744 mmHg 79%
    09:00 +2°C° 0 mm 5 mps 745 mmHg 78%
    10:00 +3°C° 0 mm 6 mps 745 mmHg 76%
    11:00 +4°C° 0 mm 6 mps 746 mmHg 75%
    12:00 +4°C° 0 mm 6 mps 746 mmHg 74%
    13:00 +4°C° 0 mm 6 mps 746 mmHg 74%
    14:00 +5°C° 0 mm 6 mps 746 mmHg 75%
    15:00 +6°C° 0 mm 5 mps 746 mmHg 75%
    16:00 +5°C° 0.3 mm 5 mps 747 mmHg 78%
    17:00 +5°C° 0.3 mm 5 mps 748 mmHg 82%
    18:00 +3°C° 0.3 mm 5 mps 748 mmHg 85%
    19:00 +3°C° 0.8 mm 5 mps 749 mmHg 87%
    20:00 +3°C° 0.8 mm 5 mps 749 mmHg 88%
    21:00 +3°C° 0.8 mm 5 mps 750 mmHg 90%
    22:00 +3°C° 0.2 mm 5 mps 750 mmHg 89%
    23:00 +3°C° 0.2 mm 5 mps 751 mmHg 88%

    15 November, Friday

    Time Temperature Precipitation Wind Pressure Humidity
    00:00 +3°C° 0.2 mm 6 mps 751 mmHg 88%
    01:00 +5°C° 0.1 mm 5 mps 751 mmHg 87%
    02:00 +5°C° 0.1 mm 5 mps 752 mmHg 86%
    03:00 +5°C° 0.1 mm 5 mps 752 mmHg 85%
    04:00 +5°C° 0 mm 5 mps 753 mmHg 86%
    05:00 +5°C° 0 mm 5 mps 753 mmHg 86%
    06:00 +5°C° 0 mm 5 mps 754 mmHg 86%
    07:00 +5°C° 0 mm 5 mps 754 mmHg 85%
    08:00 +5°C° 0 mm 5 mps 754 mmHg 85%
    09:00 +5°C° 0 mm 4 mps 755 mmHg 84%
    10:00 +6°C° 0 mm 5 mps 755 mmHg 82%
    11:00 +6°C° 0 mm 5 mps 755 mmHg 80%
    12:00 +7°C° 0 mm 5 mps 755 mmHg 79%
    13:00 +6°C° 0 mm 5 mps 754 mmHg 80%
    14:00 +6°C° 0 mm 5 mps 754 mmHg 82%
    15:00 +6°C° 0 mm 5 mps 754 mmHg 83%
    16:00 +6°C° 0 mm 5 mps 754 mmHg 83%
    17:00 +6°C° 0 mm 5 mps 754 mmHg 83%
    18:00 +6°C° 0 mm 5 mps 754 mmHg 83%
    19:00 +5°C° 0 mm 5 mps 754 mmHg 83%
    20:00 +5°C° 0 mm 5 mps 753 mmHg 84%
    21:00 +5°C° 0 mm 5 mps 753 mmHg 84%
    22:00 +5°C° 0 mm 5 mps 753 mmHg 84%
    23:00 +5°C° 0 mm 5 mps 752 mmHg 83%

    16 November, Saturday

    Time Temperature Precipitation Wind Pressure Humidity
    00:00 +5°C° 0 mm 5 mps 752 mmHg 82%
    01:00 +5°C° 0 mm 5 mps 752 mmHg 82%
    02:00 +5°C° 0 mm 5 mps 751 mmHg 82%
    03:00 +5°C° 0 mm 5 mps 751 mmHg 82%
    04:00 +5°C° 0.1 mm 5 mps 751 mmHg 82%
    05:00 +5°C° 0.1 mm 5 mps 750 mmHg 83%
    06:00 +5°C° 0.1 mm 5 mps 750 mmHg 83%
    07:00 +5°C° 0.1 mm 5 mps 750 mmHg 84%
    08:00 +5°C° 0.1 mm 4 mps 750 mmHg 85%
    09:00 +5°C° 0.1 mm 4 mps 750 mmHg 86%
    10:00 +6°C° 0.2 mm 4 mps 750 mmHg 85%
    11:00 +6°C° 0.2 mm 4 mps 750 mmHg 85%
    12:00 +8°C° 0.2 mm 3 mps 750 mmHg 84%
    13:00 +8°C° 0.1 mm 3 mps 749 mmHg 84%
    14:00 +8°C° 0.1 mm 3 mps 749 mmHg 84%
    15:00 +8°C° 0.1 mm 3 mps 749 mmHg 84%
    16:00 +7°C° 0 mm 3 mps 749 mmHg 85%
    17:00 +7°C° 0 mm 2 mps 749 mmHg 86%
    18:00 +7°C° 0 mm 2 mps 749 mmHg 87%
    19:00 +7°C° 0 mm 2 mps 749 mmHg 87%
    20:00 +7°C° 0 mm 2 mps 750 mmHg 87%
    21:00 +7°C° 0 mm 2 mps 750 mmHg 88%
    22:00 +6°C° 0 mm 2 mps 750 mmHg 88%
    23:00 +6°C° 0 mm 2 mps 750 mmHg 89%

    17 November, Sunday

    Time Temperature Precipitation Wind Pressure Humidity
    00:00 +6°C° 0 mm 2 mps 750 mmHg 89%
    01:00 +6°C° 0.1 mm 2 mps 750 mmHg 89%
    02:00 +6°C° 0.1 mm 2 mps 750 mmHg 90%
    03:00 +6°C° 0.1 mm 2 mps 750 mmHg 90%
    04:00 +6°C° 0.2 mm 2 mps 750 mmHg 90%
    05:00 +6°C° 0.2 mm 2 mps 751 mmHg 91%
    06:00 +5°C° 0.2 mm 3 mps 751 mmHg 91%
    07:00 +6°C° 0.2 mm 2 mps 751 mmHg 90%
    08:00 +6°C° 0.2 mm 2 mps 752 mmHg 90%
    09:00 +6°C° 0.2 mm 2 mps 752 mmHg 89%
    10:00 +7°C° 0.1 mm 2 mps 752 mmHg 86%
    11:00 +7°C° 0.1 mm 3 mps 752 mmHg 84%
    12:00 +8°C° 0.1 mm 3 mps 752 mmHg 81%
    13:00 +8°C° 0 mm 3 mps 752 mmHg 81%
    14:00 +8°C° 0 mm 3 mps 752 mmHg 81%
    15:00 +7°C° 0 mm 2 mps 752 mmHg 81%
    16:00 +7°C° 0 mm 2 mps 753 mmHg 82%
    17:00 +7°C° 0 mm 2 mps 753 mmHg 83%
    18:00 +6°C° 0 mm 2 mps 753 mmHg 85%
    19:00 +6°C° 0 mm 2 mps 753 mmHg 86%
    20:00 +7°C° 0 mm 1 mps 753 mmHg 86%
    21:00 +6°C° 0 mm 1 mps 753 mmHg 87%
    22:00 +6°C° 0 mm 1 mps 753 mmHg 88%
    23:00 +5°C° 0 mm 0 mps 753 mmHg 89%
    Show more